When you browse on this site, cookies collect data to enhance your experience and personalize the content and advertising you see.
Visit our Privacy Policy to learn more. By continuing to use the site, you agree to this use of cookies and data.
  • In France
  • List of Countries
  • For 7 days
  • Water Temperature
  • Weather Map
  • Weather Widgets
  • user-avatar
    Login

    Hourly Weather La-Plata

    Today, 21 February, Friday

    Time Temperature Precipitation Wind Pressure Humidity
    00:00 +14°C° 0 mm 6 mps 764 mmHg 57%
    01:00 +13°C° 0 mm 6 mps 764 mmHg 60%
    02:00 +13°C° 0 mm 6 mps 764 mmHg 62%
    09:00 +17°C° 0 mm 7 mps 765 mmHg 48%
    10:00 +20°C° 0 mm 6 mps 765 mmHg 42%
    11:00 +22°C° 0 mm 6 mps 765 mmHg 37%
    12:00 +23°C° 0 mm 6 mps 765 mmHg 34%
    13:00 +24°C° 0 mm 6 mps 765 mmHg 31%
    14:00 +26°C° 0 mm 6 mps 764 mmHg 28%
    15:00 +24°C° 0 mm 6 mps 764 mmHg 28%
    16:00 +24°C° 0 mm 6 mps 764 mmHg 28%
    17:00 +24°C° 0 mm 6 mps 764 mmHg 27%
    18:00 +22°C° 0 mm 6 mps 764 mmHg 32%
    19:00 +20°C° 0 mm 6 mps 765 mmHg 37%
    20:00 +17°C° 0 mm 6 mps 765 mmHg 42%
    21:00 +16°C° 0 mm 6 mps 766 mmHg 49%
    22:00 +14°C° 0 mm 6 mps 766 mmHg 56%
    23:00 +13°C° 0 mm 5 mps 766 mmHg 62%

    Tomorrow, 22 February, Saturday

    Time Temperature Precipitation Wind Pressure Humidity
    00:00 +12°C° 0 mm 5 mps 766 mmHg 67%
    01:00 +10°C° 0 mm 5 mps 766 mmHg 71%
    02:00 +10°C° 0 mm 4 mps 766 mmHg 76%
    03:00 +10°C° 0 mm 4 mps 766 mmHg 78%
    04:00 +10°C° 0 mm 4 mps 767 mmHg 80%
    05:00 +8°C° 0 mm 4 mps 767 mmHg 82%
    06:00 +11°C° 0 mm 3 mps 767 mmHg 76%
    07:00 +13°C° 0 mm 3 mps 767 mmHg 69%
    08:00 +14°C° 0 mm 3 mps 767 mmHg 63%
    09:00 +18°C° 0 mm 3 mps 767 mmHg 54%
    10:00 +20°C° 0 mm 2 mps 767 mmHg 44%
    11:00 +23°C° 0 mm 2 mps 767 mmHg 35%
    12:00 +24°C° 0 mm 2 mps 766 mmHg 35%
    13:00 +25°C° 0 mm 3 mps 765 mmHg 35%
    14:00 +26°C° 0 mm 4 mps 765 mmHg 35%
    15:00 +25°C° 0 mm 4 mps 764 mmHg 40%
    16:00 +23°C° 0 mm 5 mps 764 mmHg 46%
    17:00 +22°C° 0 mm 5 mps 764 mmHg 51%
    18:00 +20°C° 0 mm 5 mps 764 mmHg 58%
    19:00 +19°C° 0 mm 4 mps 764 mmHg 64%
    20:00 +17°C° 0 mm 4 mps 764 mmHg 71%
    21:00 +17°C° 0 mm 4 mps 764 mmHg 72%
    22:00 +17°C° 0 mm 3 mps 764 mmHg 73%
    23:00 +17°C° 0 mm 3 mps 765 mmHg 75%

    Day after tomorrow, 23 February, Sunday

    Time Temperature Precipitation Wind Pressure Humidity
    00:00 +17°C° 0 mm 3 mps 764 mmHg 75%
    01:00 +17°C° 0 mm 3 mps 764 mmHg 76%
    02:00 +17°C° 0 mm 3 mps 763 mmHg 77%
    03:00 +17°C° 0 mm 4 mps 763 mmHg 77%
    04:00 +15°C° 0 mm 4 mps 763 mmHg 78%
    05:00 +15°C° 0 mm 4 mps 763 mmHg 79%
    06:00 +18°C° 0 mm 4 mps 763 mmHg 72%
    07:00 +19°C° 0 mm 4 mps 763 mmHg 65%
    08:00 +21°C° 0 mm 4 mps 763 mmHg 58%
    09:00 +22°C° 0 mm 4 mps 763 mmHg 52%
    10:00 +25°C° 0 mm 4 mps 763 mmHg 46%
    11:00 +26°C° 0 mm 4 mps 763 mmHg 41%
    12:00 +27°C° 0 mm 3 mps 762 mmHg 36%
    13:00 +28°C° 0 mm 3 mps 761 mmHg 32%
    14:00 +29°C° 0 mm 2 mps 760 mmHg 28%
    15:00 +29°C° 0 mm 3 mps 760 mmHg 29%
    16:00 +29°C° 0 mm 3 mps 759 mmHg 29%
    17:00 +29°C° 0 mm 3 mps 758 mmHg 30%
    18:00 +27°C° 0 mm 4 mps 758 mmHg 43%
    19:00 +23°C° 0 mm 4 mps 759 mmHg 56%
    20:00 +21°C° 0 mm 5 mps 759 mmHg 69%
    21:00 +21°C° 0 mm 5 mps 759 mmHg 72%
    22:00 +21°C° 0 mm 4 mps 759 mmHg 74%
    23:00 +21°C° 0 mm 4 mps 759 mmHg 77%

    24 February, Monday

    Time Temperature Precipitation Wind Pressure Humidity
    00:00 +21°C° 0 mm 4 mps 758 mmHg 73%
    01:00 +21°C° 0 mm 4 mps 758 mmHg 70%
    02:00 +21°C° 0 mm 4 mps 757 mmHg 66%
    03:00 +21°C° 0 mm 5 mps 757 mmHg 66%
    04:00 +20°C° 0 mm 5 mps 757 mmHg 66%
    05:00 +20°C° 0 mm 5 mps 757 mmHg 66%
    06:00 +21°C° 0 mm 5 mps 757 mmHg 63%
    07:00 +22°C° 0 mm 6 mps 757 mmHg 60%
    08:00 +24°C° 0 mm 6 mps 757 mmHg 57%
    09:00 +26°C° 0 mm 5 mps 757 mmHg 51%
    10:00 +28°C° 0 mm 5 mps 756 mmHg 44%
    11:00 +30°C° 0 mm 5 mps 756 mmHg 37%
    12:00 +32°C° 0 mm 5 mps 755 mmHg 34%
    13:00 +33°C° 0 mm 4 mps 754 mmHg 30%
    14:00 +33°C° 0 mm 4 mps 753 mmHg 27%
    15:00 +33°C° 0 mm 4 mps 753 mmHg 26%
    16:00 +33°C° 0 mm 3 mps 752 mmHg 26%
    17:00 +33°C° 0 mm 3 mps 752 mmHg 25%
    18:00 +30°C° 0 mm 3 mps 752 mmHg 35%
    19:00 +28°C° 0 mm 4 mps 752 mmHg 44%
    20:00 +25°C° 0 mm 4 mps 752 mmHg 53%
    21:00 +25°C° 0 mm 4 mps 752 mmHg 57%
    22:00 +25°C° 0 mm 4 mps 753 mmHg 62%
    23:00 +25°C° 0 mm 5 mps 753 mmHg 66%

    25 February, Tuesday

    Time Temperature Precipitation Wind Pressure Humidity
    00:00 +23°C° 0 mm 4 mps 753 mmHg 67%
    01:00 +22°C° 0 mm 3 mps 753 mmHg 69%
    02:00 +21°C° 0 mm 2 mps 753 mmHg 71%
    03:00 +21°C° 0 mm 2 mps 753 mmHg 67%
    04:00 +21°C° 0 mm 2 mps 754 mmHg 64%
    05:00 +21°C° 0 mm 2 mps 754 mmHg 60%
    06:00 +22°C° 0 mm 3 mps 755 mmHg 58%
    07:00 +22°C° 0 mm 3 mps 755 mmHg 57%
    08:00 +24°C° 0 mm 3 mps 755 mmHg 55%
    09:00 +26°C° 0 mm 3 mps 755 mmHg 46%
    10:00 +29°C° 0 mm 4 mps 755 mmHg 37%
    11:00 +32°C° 0 mm 4 mps 756 mmHg 28%
    12:00 +32°C° 0 mm 4 mps 756 mmHg 26%
    13:00 +32°C° 0 mm 5 mps 756 mmHg 24%
    14:00 +32°C° 0 mm 5 mps 756 mmHg 23%
    15:00 +30°C° 0 mm 6 mps 756 mmHg 28%
    16:00 +29°C° 0 mm 6 mps 756 mmHg 34%
    17:00 +27°C° 0 mm 6 mps 756 mmHg 40%
    18:00 +26°C° 0 mm 6 mps 756 mmHg 48%
    19:00 +23°C° 0 mm 7 mps 757 mmHg 56%
    20:00 +21°C° 0 mm 7 mps 757 mmHg 64%
    21:00 +21°C° 0 mm 6 mps 757 mmHg 64%
    22:00 +20°C° 0 mm 6 mps 757 mmHg 64%
    23:00 +20°C° 0 mm 6 mps 757 mmHg 63%

    26 February, Wednesday

    Time Temperature Precipitation Wind Pressure Humidity
    00:00 +20°C° 0 mm 6 mps 757 mmHg 64%
    01:00 +20°C° 0 mm 5 mps 757 mmHg 65%
    02:00 +20°C° 0 mm 5 mps 757 mmHg 66%
    03:00 +19°C° 0 mm 4 mps 757 mmHg 68%
    04:00 +19°C° 0 mm 3 mps 757 mmHg 69%
    05:00 +18°C° 0 mm 2 mps 757 mmHg 71%
    06:00 +20°C° 0 mm 2 mps 757 mmHg 62%
    07:00 +23°C° 0 mm 2 mps 757 mmHg 54%
    08:00 +24°C° 0 mm 2 mps 757 mmHg 45%
    09:00 +26°C° 0 mm 3 mps 757 mmHg 40%
    10:00 +28°C° 0 mm 3 mps 757 mmHg 34%
    11:00 +29°C° 0 mm 3 mps 756 mmHg 29%
    12:00 +30°C° 0 mm 3 mps 756 mmHg 27%
    13:00 +31°C° 0 mm 3 mps 755 mmHg 25%
    14:00 +32°C° 0 mm 2 mps 755 mmHg 23%
    15:00 +32°C° 0 mm 2 mps 754 mmHg 24%
    16:00 +33°C° 0 mm 3 mps 754 mmHg 25%
    17:00 +33°C° 0 mm 3 mps 754 mmHg 25%
    18:00 +29°C° 0 mm 3 mps 754 mmHg 37%
    19:00 +26°C° 0 mm 3 mps 755 mmHg 50%
    20:00 +24°C° 0 mm 3 mps 755 mmHg 62%
    21:00 +22°C° 0 mm 3 mps 755 mmHg 65%
    22:00 +23°C° 0 mm 2 mps 756 mmHg 68%
    23:00 +23°C° 0 mm 2 mps 756 mmHg 70%
    Show more